Weather History for FAGG - November, 2012

Change the Weather History Date:

Friday, November 9, 2012

  Actual Average Record
Temperature  
Mean Temperature 62 °F -  
Max Temperature 72 °F 70 °F - ()
Min Temperature 51 °F 54 °F - ()
Degree Days  
Heating Degree Days 4    
Growing Degree Days 12 (Base 50)    
Moisture  
Dew Point 54 °F    
Average Humidity 76    
Maximum Humidity 94    
Minimum Humidity 45    
Precipitation  
Precipitation 0.00 in - - ()
Sea Level Pressure  
Sea Level Pressure 29.87 in    
Wind  
Wind Speed 5 mph ()    
Max Wind Speed 12 mph    
Max Gust Speed -    
Visibility 8.5 miles    
Events      
T = Trace of Precipitation, MM = Missing Value Source: Averaged Metar Reports

Daily Weather History Graph

Daily Weather History Graph

Search for Another Location

Airport or City:

Trip Planner

Search our weather history database for the weather conditions in past years. The results will help you decide how hot, cold, wet, or windy it might be!

Date:

Astronomy

Nov. 09, 2012 Rise Set
Actual Time 5:22 AM SAST 7:06 PM SAST
Civil Twilight 4:55 AM SAST 7:33 PM SAST
Nautical Twilight 4:22 AM SAST 8:06 PM SAST
Astronomical Twilight 3:48 AM SAST 8:41 PM SAST
Moon 2:06 AM SAST (11/9) 2:19 PM SAST (11/9)
Length of Visible Light 14h 38m
Length of Day
13h 44m
Waning Crescent, 26% of the Moon is Illuminated
Nov 9
Waning Crescent
Nov 14
New
Nov 20
First Quarter
Nov 28
Full
Dec 6
Last Quarter

Hourly Weather History & Observations

Time (SAST) Temp. Dew Point Humidity Pressure Visibility Wind Dir Wind Speed Gust Speed Precip Events Conditions
12:00 AM 53.6 °F 51.8 °F 94% 29.89 in - NE 2.3 mph - N/A   Clear
1:00 AM 53.6 °F 51.8 °F 94% 29.86 in - NW 5.8 mph - N/A   Clear
2:00 AM 53 °F 51 °F 90% 29.85 in 6 mi WNW 4.6 mph - -  
2:00 AM 53.6 °F 50.0 °F 88% 29.83 in - NW 3.5 mph - N/A   Clear
3:00 AM 53.6 °F 50.0 °F 88% 29.80 in - Variable 1.2 mph - N/A   Clear
4:00 AM 51.8 °F 50.0 °F 94% 29.80 in - NW 3.5 mph - N/A   Clear
5:00 AM 53 °F 50 °F 87% 29.81 in 12 mi WSW 3.5 mph - -   Mostly Cloudy
5:00 AM 53.6 °F 50.0 °F 88% 29.80 in - WSW 3.5 mph - N/A   Clear
6:00 AM 55.4 °F 51.8 °F 88% 29.80 in - Variable 2.3 mph - N/A   Clear
7:00 AM 57.2 °F 53.6 °F 88% 29.80 in - West 4.6 mph - N/A   Clear
8:00 AM 61 °F 55 °F 75% 29.82 in 12 mi West 6.9 mph - -   Mostly Cloudy
8:00 AM 60.8 °F 55.4 °F 82% 29.80 in - West 6.9 mph - N/A   Clear
9:00 AM 66.2 °F 57.2 °F 73% 29.80 in - West 6.9 mph - N/A   Clear
10:00 AM 69.8 °F 57.2 °F 64% 29.83 in - SW 8.1 mph - N/A   Clear
11:00 AM 70 °F 58 °F 57% 29.83 in 12 mi South 6.9 mph - -  
11:00 AM 69.8 °F 59.0 °F 68% 29.83 in - South 6.9 mph - N/A   Clear
12:00 PM 69.8 °F 57.2 °F 64% 29.83 in - SSW 11.5 mph - N/A   Clear
1:00 PM 69.8 °F 57.2 °F 64% 29.86 in 6.2 mi SW 6.9 mph - N/A   Partly Cloudy
2:00 PM 70 °F 56 °F 51% 29.87 in 12 mi SSW 9.2 mph - -   Scattered Clouds
2:00 PM 69.8 °F 57.2 °F 64% 29.86 in 6.2 mi SSW 9.2 mph - N/A   Partly Cloudy
3:00 PM 69.8 °F 53.6 °F 56% 29.86 in 6.2 mi SW 5.8 mph - N/A   Partly Cloudy
4:00 PM 69.8 °F 53.6 °F 56% 29.86 in 6.2 mi WSW 8.1 mph - N/A   Partly Cloudy
5:00 PM 69 °F 52 °F 45% 29.89 in 12 mi West 6.9 mph - -  
5:00 PM 69.8 °F 53.6 °F 56% 29.89 in - West 5.8 mph - N/A   Clear
6:00 PM 64.4 °F 53.6 °F 68% 29.89 in - SW 10.4 mph - N/A   Clear
7:00 PM 60.8 °F 55.4 °F 82% 29.95 in - WSW 5.8 mph - N/A   Clear
8:00 PM 59 °F 55 °F 82% 29.97 in 12 mi NNW 5.8 mph - -   Scattered Clouds
8:00 PM 59.0 °F 55.4 °F 88% 29.95 in 6.2 mi NNW 5.8 mph - N/A   Partly Cloudy
9:00 PM 60.8 °F 57.2 °F 88% 30.01 in 6.2 mi WNW 4.6 mph - N/A   Mostly Cloudy
10:00 PM 60.8 °F 57.2 °F 88% 30.01 in 6.2 mi NW 5.8 mph - N/A   Mostly Cloudy
11:00 PM 62.6 °F 57.2 °F 82% 30.04 in 6.2 mi NW 6.9 mph - N/A   Mostly Cloudy